Regional Weather Roundup
Issued by NWS Bismarck, ND

Home | Current Version | Previous Version | Text Only | Print | Product List | Glossary On
Versions: 1 2 3 4 5 6 7 8 9 10 11 12 13 14 15 16 17 18 19 20 21 22 23 24 25 26 27 28 29 30 31 32 33 34 35 36 37 38 39 40 41 42 43 44 45 46 47 48 49 50
000
ASUS43 KBIS 221910
RWRBIS

NWR BROADCAST TEXT
NATIONAL WEATHER SERVICE BISMARCK ND
200 PM CDT FRI SEP 22 2017

NOTE: "FAIR" INDICATES FEW OR NO CLOUDS BELOW 12,000 FEET WITH NO
SIGNIFICANT WEATHER AND/OR OBSTRUCTIONS TO VISIBILITY.


CITY           SKY/WX    TMP DP  RH WIND       PRES   REMARKS
WILLISTON      CLOUDY    50  40  68 N17       29.99F
MINOT          LGT RAIN  50  43  77 N16       29.90R
MINOT AFB      CLOUDY    49  43  78 N12       29.89S
BISMARCK       CLOUDY    53  46  77 N20G25    29.80R
DICKINSON      CLOUDY    50  38  63 N18G30    29.85F
GARRISON         N/A     48  40  73 N15G26    29.85R
HETTINGER ARPT CLOUDY    50  38  63 N18G30    29.86R
JAMESTOWN      CLOUDY    62  56  80 NE10      29.69F
CARRINGTON     CLOUDY    61  50  67 N12       29.78R
HAZEN          CLOUDY    50  43  76 N16G23    29.88F
LINTON         CLOUDY    57  50  77 N14G22    29.73F HAZE
RUGBY          LGT RAIN  48  46  93 N15G23    29.87R
STANLEY        CLOUDY    45  45 100 N13       29.97S
TIOGA          RAIN      43  43 100 N14       29.97F
WATFORD CITY   CLOUDY    46  41  81 N13       29.96S
$$

CITY           SKY/WX    TMP DP  RH WIND       PRES   REMARKS
GRAND FORKS    CLOUDY    72  59  63 N10       29.73S
GRAND FORKS AF PTSUNNY   68  55  62 NE17G24   29.73F
DEVILS LAKE    LGT RAIN  58  45  62 NE14      29.78F
FARGO          CLOUDY    81  70  69 NW5       29.64F
CANDO          CLOUDY    55  46  71 NE17G23   29.84R
CAVALIER       CLOUDY    63  50  63 N16G22    29.77F
GRAFTON        CLOUDY    66  54  63 N15       29.77F
GWINNER        MOCLDY    77  68  73 NE8       29.65F
LANGDON        CLOUDY    59  45  58 NE23G30   29.81F
ROLLA          RAIN      46  46 100 N23G29    29.84F
WALHALLA       FAIR     N/A N/A N/A N16       29.80F
$$

CITY           SKY/WX    TMP DP  RH WIND       PRES   REMARKS
ABERDEEN       MOSUNNY   88  68  51 S14       29.61F HX  91
MOBRIDGE       CLOUDY    63  55  75 N22G30    29.65S
BUFFALO          N/A     53  35  50 N14       29.85R
GLASGOW        LGT RAIN  43  41  93 NW9       30.07S
SIDNEY         CLOUDY    49  39  68 N14       30.01S
WOLF POINT     RAIN      44  40  85 N9        30.08R FOG
GLENDIVE       CLOUDY    47  36  65 N20G25    30.00F
MILES CITY     CLOUDY    47  34  60 N18       30.00F
BAKER          CLOUDY    50  33  52 N21G31    29.94F
$$

CITY           SKY/WX    TMP DP  RH WIND       PRES   REMARKS
BILLINGS       CLOUDY    40  39  97 NE14      29.99F
GREAT FALLS    LGT RAIN  37  34  89 NE12      30.05F
REGINA         CLOUDY    46  39  76 NW10      30.05R
ESTEVAN        LGT RAIN  46  45  93 N15       29.98F
$$





USA.gov is the U.S. government's official web portal to all federal, state and local government web resources and services.